Dewpoint
23 22 22 22 25 24 22 21 22 21 22 23 22 24 21 19 16 19 19 19 18 19 21 22 24 26 27 27 27 25 25 26 26 22 24 23 24 29 32 34 35 35 35 34 34 33 33 33 33 34 34 34 34 34 34 34 34 34 34 34 35 35 35 36 36 36 37 37 37 38 38 38 38 38
24 24 23 22 23 24 23 23 22 22 21 22 23 23 21 18 14 17 16 16 17 18 20 20 23 25 26 27 27 25 24 30 23 19 23 23 23 30 31 32 34 34 35 34 34 34 34 33 33 33 34 34 34 34 34 34 33 33 34 34 34 34 35 35 35 36 36 36 37 37 37 37 37 37
26 25 24 23 22 22 22 22 22 22 23 24 23 25 23 20 15 16 16 12 16 17 19 20 23 24 25 27 26 26 25 29 23 19 22 22 27 30 29 30 31 33 34 34 34 34 34 34 34 34 34 34 34 34 34 33 33 33 33 33 34 34 34 34 34 34 35 35 36 36 36 37 37 37
27 26 25 24 22 22 22 21 21 21 21 22 23 22 24 21 18 16 16 12 12 17 17 19 22 24 25 26 25 24 24 28 26 22 22 23 29 28 25 28 29 30 32 33 34 34 34 34 34 34 34 33 33 34 34 33 33 33 33 33 34 34 33 33 33 34 34 34 34 35 35 35 36 37
26 26 25 24 23 22 21 21 21 20 20 21 22 22 22 22 20 17 16 13 14 17 21 21 22 24 25 24 23 22 23 25 24 25 23 24 24 22 20 24 28 29 31 32 33 34 34 35 34 34 34 33 33 33 33 33 33 33 33 33 33 33 33 34 34 33 34 34 34 34 35 35 35 36
27 26 25 25 24 23 22 22 20 19 19 20 20 19 21 20 20 19 17 15 14 14 20 22 24 24 24 23 23 22 22 22 22 21 22 23 21 19 18 19 24 28 29 31 32 33 34 35 35 35 34 34 33 33 33 32 32 33 33 33 32 32 33 33 33 33 33 33 33 34 35 35 35 35
26 26 25 25 24 25 23 22 21 21 19 19 19 19 19 18 18 19 17 16 16 15 18 22 23 23 23 22 22 21 22 21 20 19 20 21 22 21 19 20 22 28 29 30 31 32 33 34 34 34 34 34 33 32 32 32 33 33 33 33 32 32 32 32 32 31 32 32 33 34 34 34 34 35
26 25 25 25 24 24 24 23 21 21 20 18 18 18 18 18 17 17 18 16 15 16 17 21 22 23 22 21 22 22 22 20 19 18 19 20 20 21 22 19 20 26 29 30 30 31 32 33 34 34 34 34 33 32 32 32 32 32 32 32 32 32 31 30 29 30 30 31 32 33 33 34 34 34
26 25 25 24 24 23 23 23 22 21 19 19 18 17 17 17 16 17 17 16 14 16 16 19 21 22 22 21 21 21 20 20 19 19 18 19 19 20 20 21 22 25 27 29 30 30 31 32 33 34 34 33 33 32 31 32 32 31 31 31 30 31 30 28 28 29 30 30 31 32 32 33 34 34
25 25 25 25 24 23 23 23 23 22 20 20 19 18 17 16 16 15 14 14 13 14 15 18 19 20 20 18 19 21 20 19 18 18 18 19 20 20 20 20 22 23 24 25 27 29 29 31 32 33 33 33 32 31 31 31 31 30 30 29 29 28 28 27 28 30 30 30 31 31 31 32 33 33
23 24 24 24 24 24 24 24 23 22 21 22 20 19 18 17 16 15 13 12 12 10 14 16 18 19 19 18 18 20 19 18 17 16 16 17 19 20 19 20 21 22 23 26 28 27 27 29 29 31 32 32 31 31 31 30 30 30 29 28 28 27 26 27 28 29 30 30 30 30 30 31 32 33
23 23 23 23 23 23 24 24 23 23 22 21 20 19 18 18 17 16 16 13 12 10 10 14 15 17 17 15 15 19 17 16 15 16 15 14 16 18 19 18 20 22 21 22 24 26 26 27 28 29 30 31 30 30 29 29 28 28 28 27 27 25 26 27 28 29 30 29 29 29 30 30 30 32
24 23 23 23 23 24 26 27 27 26 26 25 24 23 19 21 20 20 20 18 14 14 13 13 13 14 14 14 14 16 15 14 14 14 14 12 14 16 17 18 19 21 20 21 21 22 24 23 23 24 24 25 28 27 28 27 26 26 26 25 25 25 26 27 28 29 29 30 30 30 30 29 30 30
25 24 24 25 27 27 27 27 28 30 30 29 26 23 23 23 23 22 21 19 18 17 15 14 13 15 13 12 12 15 15 14 13 13 13 11 13 15 15 17 18 21 20 19 19 20 23 23 22 22 21 22 24 22 22 23 24 24 24 25 25 26 26 27 28 29 29 29 29 30 30 29 29 30
26 26 25 25 25 26 27 27 29 30 30 30 30 29 27 25 24 23 22 22 21 18 17 16 14 14 12 10 11 12 14 14 12 11 12 11 12 13 13 12 16 20 19 19 19 19 21 21 20 20 20 20 20 20 19 24 24 23 23 25 25 25 26 28 28 28 28 28 29 29 30 29 29 30
27 27 26 26 27 25 24 23 23 26 29 30 30 30 30 29 28 27 24 22 21 21 18 17 17 11 11 9 9 10 12 12 11 11 11 9 10 12 13 9 12 17 19 17 17 17 21 21 19 18 18 17 18 19 21 22 24 25 24 23 25 26 27 27 27 28 28 28 28 29 29 29 29 29
27 27 27 26 27 27 28 28 25 23 23 28 30 30 30 30 30 30 30 28 24 23 22 20 20 11 9 8 8 10 11 12 9 10 10 9 9 10 10 8 9 18 18 16 16 15 18 20 19 16 17 16 17 20 22 23 24 25 24 25 26 27 27 26 27 27 27 28 28 28 28 29 29 29
27 26 26 26 26 26 26 26 25 24 23 22 23 25 26 26 27 30 30 29 28 25 21 19 20 14 11 8 8 11 15 11 11 11 12 10 11 11 11 9 10 17 18 13 14 15 16 17 17 15 14 14 15 16 20 22 24 25 25 26 26 25 26 26 26 26 26 27 28 28 28 28 28 28
27 27 27 26 26 26 26 26 26 24 23 25 27 27 27 27 26 25 24 25 24 23 21 17 16 15 14 10 9 11 13 12 11 12 13 13 12 12 16 18 18 17 17 14 14 12 16 15 15 14 12 14 13 14 21 21 24 25 25 25 25 26 26 26 25 25 26 26 27 27 27 27 27 27
27 27 27 27 26 26 26 28 30 29 26 27 27 27 27 27 27 27 27 28 28 25 22 20 19 17 16 21 14 13 13 14 15 20 22 21 19 17 15 15 19 18 18 14 13 15 14 13 12 11 11 13 12 13 14 19 22 23 24 24 25 26 26 26 24 24 25 26 25 26 26 26 27 27
25 26 26 27 26 26 26 29 31 31 31 28 27 27 27 28 28 27 27 29 30 30 30 29 29 28 27 27 32 28 26 20 22 19 17 16 16 13 13 15 17 16 16 14 11 14 12 13 11 12 11 10 11 10 12 13 19 21 21 22 23 25 25 24 24 24 24 23 23 24 25 25 25 25
22 24 27 28 27 26 26 30 31 31 30 29 28 28 27 27 27 27 27 25 26 30 30 30 30 29 29 28 30 31 29 28 27 17 14 17 16 13 13 12 16 16 16 14 12 13 12 12 12 11 15 14 16 12 12 12 13 16 18 20 22 24 24 24 22 19 20 21 22 23 24 24 24 22
21 22 25 27 28 27 28 31 31 31 30 29 28 28 27 26 26 27 27 27 26 26 26 25 25 26 26 24 23 24 28 29 27 16 17 19 16 13 13 14 15 14 15 15 11 10 13 11 12 10 11 9 15 16 13 14 12 12 14 18 17 21 19 17 17 17 18 18 18 19 20 21 21 21
21 21 21 24 29 31 32 32 32 32 32 30 29 28 27 26 26 27 27 27 27 26 25 25 24 22 21 22 23 22 24 25 22 16 14 18 17 15 14 15 14 11 13 16 13 10 13 13 12 11 11 7 4 12 15 11 12 13 12 11 10 15 15 13 12 12 13 14 16 17 18 18 19 18
19 20 21 21 26 29 30 31 32 33 33 32 29 28 27 27 27 28 27 27 28 26 26 26 25 24 23 24 24 22 23 24 21 18 17 16 16 16 14 14 14 12 15 14 18 13 11 12 11 12 8 14 12 9 12 9 9 13 12 10 8 10 9 10 14 11 12 12 13 15 15 16 16 16
18 19 19 20 23 27 29 30 31 32 33 33 30 28 30 30 30 28 27 27 27 26 25 25 24 24 23 22 23 22 23 23 22 19 18 17 16 14 17 15 14 12 13 15 21 10 12 9 11 10 9 7 9 13 11 9 6 8 8 8 7 7 8 7 11 10 10 10 12 11 11 16 17 19
17 19 19 19 24 27 28 29 29 30 31 32 31 32 32 32 31 30 27 26 26 25 25 25 24 23 23 23 22 23 22 23 23 20 19 19 17 15 16 14 12 12 13 15 17 11 12 10 13 10 8 9 7 10 12 11 11 8 8 8 8 7 8 7 6 9 12 12 12 12 14 15 15 16
18 19 18 20 24 25 27 28 28 29 30 29 31 33 32 32 31 29 27 26 25 25 24 24 23 23 23 23 23 23 23 23 23 21 20 19 16 14 15 15 17 18 15 16 14 12 13 11 12 13 13 8 5 5 4 8 9 8 7 6 8 8 8 8 6 10 11 11 10 11 10 10 11 10
20 23 24 24 24 25 26 27 28 29 29 30 31 31 32 31 29 28 27 26 25 24 23 23 23 23 23 23 23 24 23 23 22 20 18 18 17 16 16 16 16 17 16 15 15 15 15 13 12 13 13 11 6 8 10 9 8 8 7 10 11 11 8 9 9 7 9 8 9 9 8 8 8 8
24 26 26 26 25 25 26 25 25 25 27 30 30 31 31 30 29 28 27 26 25 23 23 22 22 22 22 22 23 22 22 21 19 17 15 14 13 12 11 11 11 13 15 16 13 12 11 12 13 14 12 10 9 9 11 8 8 8 11 10 9 10 12 9 9 9 9 7 7 7 9 7 7 8
19 20 23 25 27 25 26 26 26 27 29 28 28 28 29 29 29 29 28 26 25 23 23 22 22 22 22 22 20 19 19 19 18 17 14 13 11 11 10 9 9 9 11 13 14 10 10 10 10 10 9 9 10 11 11 11 6 9 10 10 10 7 11 6 6 6 6 7 7 6 7 6 7 10
17 20 24 24 23 23 24 25 26 26 25 26 26 27 27 28 29 29 29 28 26 24 23 22 21 21 20 19 18 18 18 17 16 16 13 12 11 10 10 8 7 8 9 10 11 12 12 9 9 10 10 10 8 9 11 10 8 8 10 10 10 8 9 9 6 6 6 5 5 5 4 4 3 5
20 21 20 19 20 20 21 22 23 25 25 25 26 26 26 27 28 28 28 26 25 24 22 21 20 20 19 18 17 17 16 16 15 15 13 12 10 10 9 7 7 7 6 7 8 9 11 12 11 9 9 10 9 11 8 8 8 10 8 9 9 9 8 8 7 6 5 5 8 8 8 5 5 4
17 18 19 19 18 18 19 20 22 24 24 25 25 25 26 26 26 26 27 26 25 23 22 21 20 19 18 17 16 16 15 14 13 13 13 10 10 9 8 8 7 7 7 7 7 8 9 10 11 12 12 12 13 12 11 7 7 9 9 9 9 9 8 8 6 5 4 5 5 6 6 5 4 4
16 17 18 19 21 20 20 20 22 23 24 24 24 24 25 25 25 25 25 25 24 23 21 21 19 18 17 16 15 15 14 12 12 12 11 10 9 9 8 8 7 7 7 7 7 8 8 8 8 7 8 8 7 8 13 11 7 8 10 9 9 9 9 10 9 6 4 5 4 5 5 4 3 2
13 15 17 17 20 22 21 21 22 22 23 23 23 24 24 24 25 25 24 24 23 22 21 20 18 17 16 15 14 14 12 11 10 10 9 9 8 8 8 8 8 7 7 7 7 7 8 7 7 5 4 4 3 3 4 12 12 7 7 6 8 8 9 8 9 8 7 7 7 5 4 4 4 2
13 15 16 17 18 20 21 22 22 22 22 23 23 23 23 23 24 24 24 24 22 21 20 18 17 16 15 14 13 12 11 10 9 9 8 8 8 8 7 7 8 7 7 7 8 8 7 7 6 5 4 4 3 1 2 10 14 12 6 6 7 9 9 9 9 7 8 6 6 6 4 3 2 1
11 13 15 17 17 18 21 22 22 22 23 23 23 23 23 23 23 23 23 22 21 20 19 17 15 15 14 13 12 11 10 10 9 9 8 8 8 7 7 7 7 7 7 8 8 8 8 7 6 5 4 2 2 2 2 6 11 14 12 6 7 8 10 8 7 6 7 7 6 4 2 3 2 0
12 12 12 15 17 19 21 22 22 22 22 22 22 22 22 22 21 21 21 20 19 18 17 15 14 14 13 13 12 10 9 9 8 8 8 7 8 7 7 7 6 7 6 6 7 8 8 7 7 6 6 3 3 2 3 3 5 8 12 15 8 9 9 8 6 6 6 5 5 4 5 4 4 10
12 12 13 15 17 19 21 21 21 21 21 22 22 22 22 19 19 19 19 18 17 16 15 14 14 14 13 12 11 10 9 9 8 7 7 7 7 7 6 6 6 6 5 6 6 6 7 7 7 7 7 7 7 5 5 6 6 6 7 9 15 11 8 8 6 5 4 6 6 6 5 5 5 4
13 12 12 13 16 18 21 21 21 21 21 22 21 21 19 18 18 17 17 16 15 15 14 13 13 12 12 11 11 9 8 7 7 7 6 6 6 6 6 6 5 5 4 5 5 5 6 7 10 12 10 8 7 6 3 1 1 3 4 5 8 10 11 10 6 6 7 7 7 6 4 3 3 4
13 13 13 15 18 21 20 18 19 21 21 20 20 18 17 17 16 18 17 17 15 15 14 13 12 11 11 10 9 8 7 6 6 6 6 5 6 6 6 5 4 5 4 4 5 5 7 10 11 11 8 6 5 2 0 1 -0 1 3 5 5 10 10 10 11 11 5 6 6 4 3 3 4 3
16 14 14 16 19 19 19 21 21 20 19 19 18 17 16 15 15 16 15 14 14 13 12 11 11 10 9 9 8 8 7 6 6 5 5 5 5 5 5 4 5 5 4 5 7 8 9 10 10 8 6 5 4 3 0 1 1 2 2 2 3 3 5 7 7 8 9 10 10 7 4 4 3 1
18 18 18 19 20 18 18 19 20 19 18 17 16 15 14 14 14 14 13 12 12 11 10 9 9 8 8 8 8 7 7 6 6 5 5 5 5 5 5 5 6 5 5 6 7 7 8 8 8 7 5 3 4 3 1 2 1 2 2 2 1 0 2 2 4 6 7 8 9 9 9 10 9 9
20 19 18 15 15 16 17 18 18 17 17 15 14 13 13 13 13 12 11 10 10 9 8 8 7 7 7 7 7 6 6 8 7 5 5 5 5 5 5 5 5 5 5 6 5 6 6 6 6 6 4 4 4 3 3 3 2 2 1 0 -0 1 1 1 1 0 0 -0 4 6 7 8 10 10